Clarksburg, WV

4:38 PM EDT on August 17, 2019 (GMT -0400)
Benedum

Weather History for KCKB - July, 2019

Change the Weather History Date:

Wednesday, July 17, 2019

  Actual Average Record
Temperature  
Mean Temperature 80 °F -  
Max Temperature 87 °F 85 °F 97 °F (1931)
Min Temperature 73 °F 61 °F 49 °F (1939)
Cooling Degree Days 14    
Growing Degree Days 30 (Base 50)    
Moisture  
Dew Point 70 °F    
Average Humidity 78    
Maximum Humidity 90    
Minimum Humidity 57    
Precipitation  
Precipitation 1.37 in - - ()
Sea Level Pressure  
Sea Level Pressure 29.94 in    
Wind  
Wind Speed 4 mph (SW)    
Max Wind Speed 17 mph    
Max Gust Speed 30 mph    
Visibility 8 miles    
Events Rain , Thunderstorm    
Averages and records for this station are not official NWS values.
T = Trace of Precipitation, MM = Missing Value Source: NWS Daily Summary

Daily Weather History Graph

Daily Weather History Graph

Search for Another Location

Airport or City:

Astronomy

Jul. 17, 2019 Rise Set
Actual Time 6:08 AM EDT 8:45 PM EDT
Civil Twilight 5:36 AM EDT 9:16 PM EDT
Nautical Twilight 4:57 AM EDT 9:55 PM EDT
Astronomical Twilight 4:14 AM EDT 10:39 PM EDT
Moon 9:33 PM EDT 6:39 AM EDT
Length of Visible Light 15h 39m
Length of Day
14h 37m
Waxing Gibbous, 99% of the Moon is Illuminated
Jul 17
Waxing Gibbous
Jul 24
Last Quarter
Jul 31
New
Aug 7
First Quarter
Aug 15
Full

Hourly Weather History & Observations

Time (EDT) Temp. Heat Index Dew Point Humidity Pressure Visibility Wind Dir Wind Speed Gust Speed Precip Events Conditions
12:53 AM 75.0 °F - 69.1 °F 82% 30.01 in 10.0 mi Calm Calm - N/A   Clear
1:53 AM 73.9 °F - 69.1 °F 85% 30.00 in 10.0 mi Calm Calm - N/A   Clear
2:53 AM 75.0 °F - 68.0 °F 79% 29.99 in 10.0 mi Calm Calm - N/A   Partly Cloudy
3:53 AM 75.0 °F - 66.9 °F 76% 29.97 in 10.0 mi Calm Calm - N/A   Clear
4:53 AM 73.0 °F - 66.9 °F 81% 29.97 in 10.0 mi Calm Calm - N/A   Clear
5:53 AM 73.0 °F - 66.0 °F 79% 29.97 in 10.0 mi Calm Calm - N/A   Clear
6:53 AM 73.9 °F - 64.9 °F 73% 29.97 in 10.0 mi Calm Calm - N/A   Scattered Clouds
7:53 AM 78.1 °F - 66.9 °F 68% 29.97 in 10.0 mi Calm Calm - N/A   Clear
8:53 AM 81.0 °F 83.3 °F 66.9 °F 62% 29.98 in 10.0 mi SSW 5.8 mph - N/A   Clear
9:53 AM 82.9 °F 86.5 °F 69.1 °F 63% 29.97 in 10.0 mi SSW 6.9 mph - N/A   Partly Cloudy
10:53 AM 84.0 °F 87.0 °F 68.0 °F 58% 29.96 in 10.0 mi SSW 16.1 mph - N/A   Partly Cloudy
11:53 AM 82.9 °F 86.5 °F 69.1 °F 63% 29.97 in 10.0 mi SW 13.8 mph - N/A   Scattered Clouds
12:53 PM 84.9 °F 89.4 °F 70.0 °F 61% 29.94 in 10.0 mi Variable 5.8 mph 16.1 mph 0.00 in   Scattered Clouds
1:53 PM 79.0 °F - 71.1 °F 77% 29.94 in 6.0 mi West 8.1 mph 25.3 mph 0.01 in Rain Light Rain
2:53 PM 86.0 °F 90.1 °F 69.1 °F 57% 29.91 in 10.0 mi SW 17.3 mph 29.9 mph 0.00 in   Mostly Cloudy
3:53 PM 86.0 °F 90.1 °F 69.1 °F 57% 29.89 in 10.0 mi WSW 16.1 mph 23.0 mph N/A   Mostly Cloudy
4:48 PM 78.8 °F - 71.6 °F 78% 29.93 in 2.0 mi West 10.4 mph 25.3 mph 0.05 in Rain Light Rain
4:53 PM 78.1 °F - 72.0 °F 81% 29.88 in 6.0 mi WSW 4.6 mph 17.3 mph 0.05 in Rain , Thunderstorm Light Rain
5:32 PM 77.0 °F - 72.0 °F 84% 29.93 in 10.0 mi SSW 6.9 mph - 0.02 in Rain Light Rain
5:53 PM 78.1 °F - 72.0 °F 81% 29.89 in 10.0 mi SSW 6.9 mph - 0.02 in Rain Light Rain
6:53 PM 80.1 °F 83.8 °F 72.0 °F 76% 29.88 in 10.0 mi SSW 10.4 mph - 0.00 in   Mostly Cloudy
7:53 PM 79.0 °F - 72.0 °F 79% 29.88 in 10.0 mi South 5.8 mph - N/A   Mostly Cloudy
8:53 PM 77.0 °F - 71.1 °F 82% 29.89 in 10.0 mi SSW 11.5 mph - N/A   Mostly Cloudy
9:40 PM 77.0 °F - 71.1 °F 82% 29.94 in 10.0 mi SW 6.9 mph - N/A   Overcast
9:53 PM 77.0 °F - 71.1 °F 82% 29.90 in 10.0 mi SSW 3.5 mph - N/A   Overcast
10:53 PM 75.9 °F - 71.1 °F 85% 29.89 in 8.0 mi SSE 3.5 mph - 0.05 in Rain Light Rain
11:01 PM 75.9 °F - 71.1 °F 85% 29.95 in 1.5 mi West 5.8 mph - 0.12 in Rain Heavy Rain
11:04 PM 75.0 °F - 72.0 °F 90% 29.94 in 0.8 mi Calm Calm - 0.20 in Rain Heavy Rain
11:12 PM 75.0 °F - 72.0 °F 90% 29.94 in 1.0 mi SSE 5.8 mph - 0.39 in Rain , Thunderstorm Heavy Thunderstorms and Rain
11:25 PM 75.0 °F - 72.0 °F 90% 29.94 in 0.8 mi SSE 11.5 mph - 0.81 in Rain , Thunderstorm Heavy Thunderstorms and Rain
11:34 PM 75.9 °F - 72.0 °F 87% 29.95 in 1.0 mi South 5.8 mph - 1.05 in Rain , Thunderstorm Heavy Thunderstorms and Rain
11:51 PM 75.2 °F - 71.6 °F 89% 29.95 in 2.5 mi West 4.6 mph - 1.23 in Rain , Thunderstorm Heavy Rain
11:53 PM 75.9 °F - 72.0 °F 87% 29.90 in 2.5 mi WSW 6.9 mph - 1.24 in Rain , Thunderstorm Heavy Rain
11:58 PM 75.9 °F - 72.0 °F 87% 29.95 in 3.0 mi West 6.9 mph - 0.01 in Rain , Thunderstorm Rain